Brainerd, MN

3:42 AM CST on February 10, 2016 (GMT -0600)
Brainerd-Crow Wing County Regional

Weather History for KBRD - February, 2013

Change the Weather History Date:

Friday, February 22, 2013

  Actual Average Record
Temperature  
Mean Temperature 22 °F -  
Max Temperature 25 °F 31 °F 55 °F (1961)
Min Temperature 19 °F 5 °F -24 °F (1963)
Degree Days  
Heating Degree Days 43    
Moisture  
Dew Point 18 °F    
Average Humidity 82    
Maximum Humidity 93    
Minimum Humidity 74    
Precipitation  
Precipitation 0.03 in - - ()
Sea Level Pressure  
Sea Level Pressure 29.95 in    
Wind  
Wind Speed 7 mph (North)    
Max Wind Speed 13 mph    
Max Gust Speed -    
Visibility 4 miles    
Events Snow    
Averages and records for this station are not official NWS values.
T = Trace of Precipitation, MM = Missing Value Source: NWS Daily Summary

Daily Weather History Graph

Daily Weather History Graph

Search for Another Location

Airport or City:

Trip Planner

Search our weather history database for the weather conditions in past years. The results will help you decide how hot, cold, wet, or windy it might be!

Date:

Astronomy

Feb. 22, 2013 Rise Set
Actual Time 7:07 AM CST 5:52 PM CST
Civil Twilight 6:37 AM CST 6:23 PM CST
Nautical Twilight 6:02 AM CST 6:58 PM CST
Astronomical Twilight 5:27 AM CST 7:33 PM CST
Moon 2:58 PM CST (2/22) 5:00 AM CST (2/22)
Length of Visible Light 11h 46m
Length of Day
10h 45m
Waxing Gibbous, 90% of the Moon is Illuminated
Feb 22
Waxing Gibbous
Feb 25
Full
Mar 4
Last Quarter
Mar 11
New
Mar 19
First Quarter

Hourly Weather History & Observations

Time (CST) Temp. Windchill Dew Point Humidity Pressure Visibility Wind Dir Wind Speed Gust Speed Precip Events Conditions
12:18 AM 19.4 °F 10.4 °F 17.6 °F 93% 30.12 in 7.0 mi NE 6.9 mph - N/A   Overcast
12:53 AM 19.9 °F 11.1 °F 17.1 °F 89% 30.19 in 3.0 mi NE 6.9 mph - N/A   Overcast
2:26 AM 21.2 °F 10.9 °F 17.6 °F 86% 30.06 in 1.8 mi NE 9.2 mph - N/A   Overcast
2:53 AM 21.0 °F 8.6 °F 17.1 °F 85% 30.11 in 1.0 mi NE 12.7 mph - N/A   Overcast
3:16 AM 21.2 °F 10.1 °F 17.6 °F 86% 30.02 in 2.0 mi NE 10.4 mph - N/A   Overcast
3:27 AM 21.2 °F 10.1 °F 17.6 °F 86% 30.02 in 4.0 mi NE 10.4 mph - N/A   Overcast
3:53 AM 21.0 °F 9.9 °F 18.0 °F 88% 30.07 in 10.0 mi NE 10.4 mph - N/A   Overcast
4:53 AM 21.9 °F 11.7 °F 18.0 °F 85% 30.05 in 7.0 mi NE 9.2 mph - N/A   Overcast
5:53 AM 21.9 °F 12.5 °F 18.0 °F 85% 30.05 in 3.0 mi NE 8.1 mph - 0.00 in Snow Light Snow
5:59 AM 21.2 °F 12.6 °F 17.6 °F 86% 29.98 in 1.8 mi NE 6.9 mph - 0.00 in Snow Light Snow
6:08 AM 21.2 °F 12.6 °F 17.6 °F 86% 29.97 in 1.0 mi NE 6.9 mph - 0.00 in Snow Light Snow
6:15 AM 21.2 °F 13.6 °F 17.6 °F 86% 29.97 in 0.8 mi NE 5.8 mph - 0.00 in Snow Light Snow
6:42 AM 21.2 °F 13.6 °F 17.6 °F 86% 29.96 in 1.0 mi North 5.8 mph - 0.01 in Snow Light Snow
6:51 AM 21.2 °F 14.9 °F 17.6 °F 86% 29.96 in 1.2 mi NNE 4.6 mph - 0.02 in Snow Light Snow
6:53 AM 21.9 °F 15.7 °F 17.1 °F 82% 30.03 in 1.2 mi NNE 4.6 mph - 0.02 in Snow Light Snow
7:27 AM 21.2 °F 16.4 °F 17.6 °F 86% 29.97 in 1.0 mi NNE 3.5 mph - 0.00 in Snow Light Snow
7:37 AM 21.2 °F - 17.6 °F 86% 29.96 in 1.5 mi Calm Calm - 0.00 in Snow Light Snow
7:53 AM 21.0 °F 16.2 °F 17.1 °F 85% 30.03 in 1.2 mi North 3.5 mph - 0.00 in Snow Light Snow
8:07 AM 21.2 °F - 17.6 °F 86% 29.97 in 1.5 mi Calm Calm - 0.00 in Snow Light Snow
8:20 AM 21.2 °F - 17.6 °F 86% 29.96 in 1.2 mi Calm Calm - 0.01 in Snow Light Snow
8:24 AM 21.2 °F 16.4 °F 17.6 °F 86% 29.96 in 1.5 mi North 3.5 mph - 0.01 in Snow Light Snow
8:27 AM 21.2 °F 16.4 °F 17.6 °F 86% 29.96 in 2.0 mi North 3.5 mph - 0.01 in Snow Light Snow
8:34 AM 21.2 °F 16.4 °F 17.6 °F 86% 29.96 in 3.0 mi North 3.5 mph - 0.01 in Snow Light Snow
8:53 AM 21.9 °F 17.2 °F 17.1 °F 82% 30.02 in 3.0 mi North 3.5 mph - 0.01 in Snow Light Snow
9:18 AM 21.2 °F 16.4 °F 17.6 °F 86% 29.95 in 2.0 mi North 3.5 mph - 0.00 in Snow Light Snow
9:31 AM 21.2 °F 13.6 °F 17.6 °F 86% 29.94 in 2.5 mi NNW 5.8 mph - 0.00 in Snow Light Snow
9:39 AM 21.2 °F 13.6 °F 17.6 °F 86% 29.94 in 5.0 mi North 5.8 mph - 0.00 in Snow Light Snow
9:53 AM 23.0 °F 18.4 °F 18.0 °F 81% 30.01 in 5.0 mi North 3.5 mph - 0.00 in Snow Light Snow
10:10 AM 24.8 °F 19.1 °F 19.4 °F 80% 29.93 in 10.0 mi North 4.6 mph - 0.00 in   Overcast
10:53 AM 23.0 °F 14.7 °F 18.0 °F 81% 29.99 in 9.0 mi NNW 6.9 mph - 0.00 in   Overcast
11:17 AM 23.0 °F 13.9 °F 17.6 °F 80% 29.92 in 1.8 mi NNW 8.1 mph - 0.00 in Snow Light Snow
11:23 AM 23.0 °F 13.9 °F 17.6 °F 80% 29.92 in 2.5 mi NNW 8.1 mph - 0.00 in Snow Light Snow
11:31 AM 24.8 °F 16.1 °F 17.6 °F 74% 29.92 in 5.0 mi North 8.1 mph - 0.00 in Snow Light Snow
11:35 AM 24.8 °F 15.3 °F 17.6 °F 74% 29.92 in 4.0 mi NNW 9.2 mph - 0.00 in Snow Light Snow
11:53 AM 24.1 °F 13.1 °F 18.0 °F 77% 29.98 in 2.5 mi NNW 11.5 mph - 0.00 in Snow Light Snow
12:15 PM 24.8 °F 14.6 °F 17.6 °F 74% 29.91 in 3.0 mi NNW 10.4 mph - 0.00 in Snow Light Snow
12:22 PM 24.8 °F 14.6 °F 17.6 °F 74% 29.90 in 4.0 mi NNW 10.4 mph - 0.00 in Snow Light Snow
12:45 PM 24.8 °F 16.1 °F 17.6 °F 74% 29.89 in 2.5 mi North 8.1 mph - 0.00 in Snow Light Snow
12:51 PM 24.8 °F 16.1 °F 17.6 °F 74% 29.89 in 3.0 mi North 8.1 mph - 0.00 in Snow Light Snow
12:53 PM 24.1 °F 16.0 °F 18.0 °F 77% 29.95 in 4.0 mi North 6.9 mph - 0.00 in Snow Light Snow
1:15 PM 24.8 °F 16.1 °F 17.6 °F 74% 29.87 in 5.0 mi North 8.1 mph - 0.00 in Snow Light Snow
1:53 PM 25.0 °F 15.5 °F 19.0 °F 78% 29.93 in 10.0 mi NNW 9.2 mph - 0.00 in   Overcast
2:53 PM 25.0 °F 15.5 °F 19.0 °F 78% 29.91 in 9.0 mi North 9.2 mph - N/A   Overcast
3:53 PM 25.0 °F 14.2 °F 19.0 °F 78% 29.92 in 6.0 mi NW 11.5 mph - 0.00 in Snow Light Snow
4:13 PM 24.8 °F 16.1 °F 19.4 °F 80% 29.86 in 2.0 mi NNW 8.1 mph - 0.00 in Snow Light Snow
4:27 PM 24.8 °F 16.9 °F 19.4 °F 80% 29.86 in 1.5 mi NNW 6.9 mph - 0.00 in Snow Light Snow
4:42 PM 24.8 °F 16.1 °F 19.4 °F 80% 29.87 in 1.8 mi NNW 8.1 mph - 0.00 in Snow Light Snow
4:53 PM 25.0 °F 18.1 °F 19.9 °F 81% 29.93 in 1.2 mi NNW 5.8 mph - 0.00 in Snow Light Snow
5:21 PM 24.8 °F 17.9 °F 19.4 °F 80% 29.87 in 0.8 mi NNW 5.8 mph - 0.00 in Snow Light Snow
5:30 PM 24.8 °F 16.9 °F 19.4 °F 80% 29.87 in 1.0 mi NNW 6.9 mph - 0.00 in Snow Light Snow
5:53 PM 24.1 °F 16.0 °F 19.9 °F 84% 29.94 in 1.5 mi NNW 6.9 mph - 0.00 in Snow Light Snow
5:59 PM 24.8 °F 16.9 °F 19.4 °F 80% 29.87 in 2.0 mi NNW 6.9 mph - 0.00 in Snow Light Snow
6:10 PM 24.8 °F 17.9 °F 19.4 °F 80% 29.87 in 4.0 mi NNW 5.8 mph - 0.00 in Snow Light Snow
6:53 PM 23.0 °F 17.0 °F 19.0 °F 85% 29.94 in 5.0 mi NNW 4.6 mph - 0.00 in Snow Light Snow
7:53 PM 24.1 °F 18.2 °F 19.0 °F 81% 29.93 in 9.0 mi NNW 4.6 mph - 0.00 in   Overcast
8:53 PM 24.1 °F 18.2 °F 19.9 °F 84% 29.92 in 10.0 mi North 4.6 mph - N/A   Overcast
9:53 PM 24.1 °F 19.7 °F 19.9 °F 84% 29.90 in 10.0 mi North 3.5 mph - N/A   Overcast
10:31 PM 24.8 °F 17.9 °F 19.4 °F 80% 29.84 in 10.0 mi North 5.8 mph - N/A   Overcast
10:42 PM 24.8 °F 16.9 °F 19.4 °F 80% 29.84 in 10.0 mi North 6.9 mph - N/A   Overcast
10:53 PM 25.0 °F 17.1 °F 19.9 °F 81% 29.90 in 10.0 mi North 6.9 mph - N/A   Overcast
11:53 PM 24.1 °F 17.0 °F 19.9 °F 84% 29.89 in 9.0 mi NNW 5.8 mph - N/A   Overcast